Вернуться в каталог

YAOGAN-40 01B

АктивенВоенныеPO
NORAD 57832·PAYLOAD·🇨🇳 China

Запущен Sep 10, 2023 с Taiyuan Satellite Launch Center

Loading…

Ближайшие Пролёты (ближайшие 24 часа)

TLE

СвежийSource: Space-Track

Эпоха: Sep 14, 2026, 23:33 UTC

1 57832U 23139C   26257.98143451  .00000122  00000-0  56029-4 0  9991
2 57832  85.9918 219.6315 0001982  84.6758 275.4651 14.12462865155383

Отслеживайте YAOGAN-40 01B в реальном времени с AllMySat

Download on the App Store